Weather History for Dallas/Ft Worth, TX

Change the Weather History Date:

Friday, November 1, 2013

  Actual Average Record
Temperature  
Mean Temperature 62 °F 62 °F  
Max Temperature 76 °F 73 °F 88 °F (1945)
Min Temperature 48 °F 52 °F 31 °F (1906)
Degree Days  
Heating Degree Days 3 5  
Month to date heating degree days 3 5  
Since 1 July heating degree days 47 77  
Cooling Degree Days 0 2  
Month to date cooling degree days 0 2  
Year to date cooling degree days 2912 2725  
Growing Degree Days 12 (Base 50)    
Moisture  
Dew Point 46 °F    
Average Humidity 61    
Maximum Humidity 86    
Minimum Humidity 35    
Precipitation  
Precipitation 0.00 in 0.12 in 1.96 in (1998)
Month to date precipitation 0.00 0.12  
Year to date precipitation 24.52 31.00  
Snow  
Snow 0.00 in 0.00 in 0.00 in ()
Since 1 July snowfall 0.0 0.0  
Since 1 September snowfall 0.0 0.0  
Snow Depth 0.00 in    
Sea Level Pressure  
Sea Level Pressure 29.88 in    
Wind  
Wind Speed 8 mph (WSW)    
Max Wind Speed 21 mph    
Max Gust Speed 28 mph    
Visibility 10 miles    
Events      
T = Trace of Precipitation, MM = Missing Value Source: NWS Daily Summary

Daily Weather History Graph

Daily Weather History Graph

Search for Another Location

Airport:

Trip Planner

Search our weather history database for the weather conditions in past years. The results will help you decide how hot, cold, wet, or windy it might be!

Date:

Astronomy

Nov. 01, 2013 Rise Set
Actual Time 7:46 AM CDT 6:36 PM CDT
Civil Twilight 7:20 AM CDT 7:02 PM CDT
Nautical Twilight 6:51 AM CDT 7:31 PM CDT
Astronomical Twilight 6:22 AM CDT 8:00 PM CDT
Moon 5:45 AM CDT (11/1) 5:26 PM CDT (11/1)
Length of Visible Light 11h 41m
Length of Day
10h 50m
Waning Crescent, 4% of the Moon is Illuminated
Nov 1
Waning Crescent
Nov 3
New
Nov 9
First Quarter
Nov 17
Full
Nov 25
Last Quarter

Hourly Weather History & Observations

Time (CDT) Temp. Dew Point Humidity Pressure Visibility Wind Dir Wind Speed Gust Speed Precip Events Conditions
12:53 AM 55.9 °F 46.0 °F 69% 29.85 in 10.0 mi SSW 5.8 mph - N/A   Clear
1:53 AM 55.0 °F 46.0 °F 72% 29.84 in 10.0 mi SSW 4.6 mph - N/A   Clear
2:53 AM 53.1 °F 46.0 °F 77% 29.83 in 10.0 mi SSW 3.5 mph - N/A   Clear
3:53 AM 52.0 °F 46.0 °F 80% 29.83 in 10.0 mi SSW 3.5 mph - N/A   Clear
4:53 AM 52.0 °F 46.9 °F 83% 29.83 in 10.0 mi SSW 3.5 mph - N/A   Clear
5:53 AM 48.9 °F 45.0 °F 86% 29.83 in 10.0 mi Calm Calm - N/A   Clear
6:53 AM 51.1 °F 45.0 °F 80% 29.83 in 10.0 mi Calm Calm - N/A   Clear
7:53 AM 50.0 °F 45.0 °F 83% 29.85 in 10.0 mi Calm Calm - N/A   Clear
8:53 AM 55.0 °F 48.0 °F 77% 29.86 in 10.0 mi South 5.8 mph - N/A   Clear
9:53 AM 61.0 °F 48.0 °F 62% 29.87 in 10.0 mi South 9.2 mph - N/A   Clear
10:53 AM 68.0 °F 46.9 °F 47% 29.86 in 10.0 mi South 13.8 mph - N/A   Clear
11:53 AM 71.1 °F 46.9 °F 42% 29.85 in 10.0 mi South 16.1 mph - N/A   Clear
12:53 PM 72.0 °F 46.9 °F 41% 29.83 in 10.0 mi South 13.8 mph - 0.00 in   Clear
1:53 PM 73.9 °F 46.9 °F 38% 29.81 in 10.0 mi SW 12.7 mph - N/A   Clear
2:53 PM 73.9 °F 46.0 °F 37% 29.81 in 10.0 mi Variable 6.9 mph - N/A   Partly Cloudy
3:53 PM 75.9 °F 46.0 °F 35% 29.81 in 10.0 mi Calm Calm - N/A   Partly Cloudy
4:53 PM 73.9 °F 46.0 °F 37% 29.83 in 10.0 mi North 5.8 mph - N/A   Mostly Cloudy
5:53 PM 73.0 °F 45.0 °F 37% 29.86 in 10.0 mi North 11.5 mph - N/A   Scattered Clouds
6:53 PM 69.1 °F 46.9 °F 45% 29.90 in 10.0 mi North 11.5 mph - N/A   Partly Cloudy
7:53 PM 64.9 °F 46.9 °F 52% 29.95 in 10.0 mi NNW 10.4 mph - N/A   Partly Cloudy
8:53 PM 64.9 °F 45.0 °F 48% 29.98 in 10.0 mi North 10.4 mph - N/A   Clear
9:53 PM 62.1 °F 45.0 °F 53% 30.02 in 10.0 mi North 10.4 mph - N/A   Partly Cloudy
10:53 PM 63.0 °F 43.0 °F 48% 30.06 in 10.0 mi NNW 16.1 mph - N/A   Clear
11:53 PM 60.1 °F 42.1 °F 51% 30.09 in 10.0 mi North 11.5 mph - N/A   Clear